This is the latest recevied weather packets stored in our database for station/object IZ1UQG-1. If no packets are shown the sender has not sent any weather packets the latest 10 day(s).
| Time | Temp. | Humidity | Pressure | Rain* | Wind** | Luminosity | Snow |
|---|---|---|---|---|---|---|---|
| 1777269553 | 16.67° C | 58% | 1018.8 hPa | 131.32 mm | - | - | - |
| 1777269253 | 16.67° C | 58% | 1018.8 hPa | 171.2 mm | - | - | - |
| 1777268953 | 16.11° C | 59% | 1018.5 hPa | 203.71 mm | - | - | - |
| 1777268653 | 16.11° C | 58% | 1018.7 hPa | 181.1 mm | - | - | - |
| 1777268353 | 16.11° C | 58% | 1018.7 hPa | 143.76 mm | - | - | - |
| 1777268053 | 16.11° C | 58% | 1018.7 hPa | 193.55 mm | - | - | - |
| 1777267753 | 16.11° C | 58% | 1018.9 hPa | 196.09 mm | - | - | - |
| 1777267453 | 16.11° C | 58% | 1018.8 hPa | 220.47 mm | - | - | - |
| 1777267153 | 16.11° C | 58% | 1018.8 hPa | 169.67 mm | - | - | - |
| 1777266853 | 16.11° C | 58% | 1018.7 hPa | 179.32 mm | - | - | - |
| 1777266553 | 16.11° C | 58% | 1018.7 hPa | 153.42 mm | - | - | - |
| 1777266253 | 16.11° C | 57% | 1018.6 hPa | 161.8 mm | - | - | - |
| 1777265953 | 16.11° C | 57% | 1018.5 hPa | 91.95 mm | - | - | - |
| 1777265653 | 16.11° C | 57% | 1018.4 hPa | 154.18 mm | - | - | - |
| 1777265353 | 16.11° C | 57% | 1018.4 hPa | 122.94 mm | - | - | - |
| 1777265053 | 16.11° C | 57% | 1018.3 hPa | 128.27 mm | - | - | - |
| 1777264753 | 16.11° C | 57% | 1018.3 hPa | 107.44 mm | - | - | - |
| 1777264453 | 16.11° C | 57% | 1018.3 hPa | 161.8 mm | - | - | - |
| 1777264153 | 16.11° C | 56% | 1018.3 hPa | 102.36 mm | - | - | - |
| 1777263853 | 16.11° C | 56% | 1018.2 hPa | 104.9 mm | - | - | - |
| 1777263553 | 16.67° C | 56% | 1018.1 hPa | 94.49 mm | - | - | - |
| 1777263253 | 16.67° C | 56% | 1018.2 hPa | 153.42 mm | - | - | - |
| 1777262953 | 16.11° C | 56% | 1018.2 hPa | 134.87 mm | - | - | - |
| 1777262653 | 16.11° C | 56% | 1018.1 hPa | 106.43 mm | - | - | - |
| 1777262353 | 16.67° C | 56% | 1018.1 hPa | 45.21 mm | - | - | - |
* Rain latest hour (hover to see other rain measurements)
** Current wind speed in m/s (hover to see current wind gust speed)